Flag for Russia Weather past 2 weeks in Khanty-Mansiysk, Russia

Now
7 °F

Light snow. Mostly cloudy.


Feels Like: 7 °F
Forecast: 6 / 11 °F
Wind: 1 mph from Northeast

Location: Hanty-Mansijsk

Current Time: Jan 31, 2015 at 9:40:29 AM

Latest Report: Jan 31, 2015 at 9:00 AM


Visibility: N/A

Pressure: 30.21 "Hg

Humidity: 78%

Dew point: 1 °F

Location of Khanty-MansiyskLocation

Historic Weather in Khanty-Mansiysk — Graph

°F

Khanty-Mansiysk temperature yesterday

Maximum temperature yesterday: 18 °F (at 6:30 AM)
Minimum temperature yesterday: 12 °F (at 12:00 AM)
Average temperature yesterday: 16 °F

Past Weeks' High & Low Weather Summary

 TemperatureHumidityPressure
High28 °F (Jan 19, 12:00 PM)93% (Jan 18, 1:00 PM)30.72 "Hg (Jan 18, 1:00 PM)
Low-27 °F (Jan 24, 4:30 AM)48% (Jan 28, 9:00 PM)29.21 "Hg (Jan 19, 8:30 AM)
Average2 °F75%29.98 "Hg
* Reported Jan 16 8:00 AM — Jan 31 8:00 AM, Khanty-Mansiysk, Weather by CustomWeather, © 2014

Note: Actual official high and low records may vary slightly from our data, if they occured in-between our weather recording intervals... More about our weather records

Advertising

Khanty-Mansiysk weather history for previous 24 hours

 ConditionsComfort  
Time TempWeatherWind HumidityBarometerVisibility
8:00 AM
Jan 31
7 °FMostly cloudy.3 mph85%30.21 "HgN/A
7:30 AM7 °FMostly cloudy.3 mph85%30.21 "HgN/A
7:00 AM7 °FMostly cloudy.6 mph85%30.21 "HgN/A
6:30 AM9 °FMostly cloudy.8 mph78%30.21 "HgN/A
6:00 AM9 °FMostly cloudy.8 mph85%30.21 "HgN/A
5:30 AM10 °FMostly cloudy.8 mph79%30.18 "HgN/A
5:00 AM14 °FMostly cloudy.3 mph79%30.18 "HgN/A
4:30 AM14 °FMostly cloudy.1 mph85%30.18 "HgN/A
4:00 AM16 °FMostly cloudy.3 mph79%30.15 "HgN/A
3:30 AM16 °FMostly cloudy.1 mph79%30.15 "HgN/A
3:00 AM16 °FMostly cloudy.3 mph79%30.15 "HgN/A
2:30 AM16 °FMostly cloudy.No wind79%30.15 "HgN/A
1:30 AM16 °FLight snow. Mostly cloudy.1 mph79%30.12 "Hg4 mi
1:00 AM16 °FLight snow. Mostly cloudy.1 mph79%30.12 "Hg6 mi
12:30 AM18 °FLight snow. Mostly cloudy.3 mph73%30.09 "HgN/A
12:00 AM18 °FMostly cloudy.3 mph73%30.09 "HgN/A
11:30 PM
Jan 30
16 °FMostly cloudy.6 mph79%30.09 "HgN/A
11:00 PM16 °FMostly cloudy.8 mph79%30.07 "HgN/A
10:30 PM16 °FMostly cloudy.6 mph73%30.07 "HgN/A
10:00 PM16 °FMostly cloudy.8 mph73%30.07 "HgN/A
9:30 PM16 °FMostly cloudy.6 mph73%30.07 "HgN/A
9:00 PM16 °FMostly cloudy.8 mph73%30.07 "HgN/A
8:30 PM16 °FMostly cloudy.8 mph73%30.04 "HgN/A
8:00 PM16 °FMostly cloudy.10 mph73%30.04 "HgN/A
7:30 PM16 °FMostly cloudy.10 mph73%30.01 "HgN/A
7:00 PM16 °FOvercast.10 mph73%30.01 "Hg6 mi
6:30 PM16 °FClear.10 mph73%30.01 "Hg10 mi
6:00 PM16 °FClear.13 mph73%29.98 "Hg10 mi
5:30 PM16 °FClear.13 mph73%29.98 "Hg10 mi
5:00 PM18 °FSunny.13 mph68%29.95 "Hg10 mi
4:30 PM18 °FSunny.13 mph68%29.95 "Hg10 mi
4:00 PM18 °FSunny.13 mph68%29.95 "Hg10 mi
3:30 PM18 °FSunny.13 mph68%29.92 "Hg10 mi
3:00 PM18 °FSunny.10 mph68%29.92 "Hg10 mi
2:30 PM18 °FSunny.10 mph68%29.89 "Hg10 mi
2:00 PM18 °FSunny.10 mph68%29.89 "Hg10 mi
1:30 PM18 °FSunny.13 mph68%29.89 "Hg10 mi
1:00 PM18 °FSunny.15 mph68%29.86 "Hg10 mi
12:30 PM18 °FSunny.15 mph68%29.86 "Hg10 mi
12:00 PM18 °FSunny.15 mph62%29.86 "Hg10 mi
11:30 AM18 °FSunny.13 mph62%29.83 "Hg10 mi
11:00 AM18 °FSunny.13 mph62%29.83 "Hg10 mi
10:30 AM18 °FSunny.13 mph62%29.83 "Hg10 mi
10:00 AM18 °FSunny.15 mph62%29.80 "Hg10 mi
9:30 AM18 °FPassing clouds.15 mph62%29.80 "HgN/A
9:00 AM16 °FClear.15 mph67%29.80 "Hg10 mi
Weather by CustomWeather, © 2014

See weather overviewHow to use our weather pages